Location: Recife
(8.0585°S, 34.8848°W)
Time: 21:43:17
(UTC-03:00)

Vanguard 1 - Pass Details

Date: 14 April 2026
Orbit: 654 x 3817 km, 34.2° (Epoch: 12 May)

Event Time Altitude Azimuth Distance (km) Brightness Sun altitude
Rises 16:04:02 0° 218° (SW) 4,373 13.7 17.1°
Reaches altitude 10° 16:07:00 10° 206° (SSW) 3,754 13.3 16.3°
Maximum altitude 16:16:00 31° 146° (SSE) 3,379 12.6 14.2°
Drops below altitude 10° 16:30:31 10° 91° (E) 6,116 13.5 10.6°
Sets 16:37:08 0° 82° (E) 7,548 14.0 9.0°
